{"data":{"norad_id":60128,"intl_designator":"2024-118R","name":"STARLINK-31813","alt_names":[],"object_type":"PAYLOAD","status":"ACTIVE","operator":null,"country":"US","launch_date":"2024-06-24","launch_site_code":"AFWTR","launch_vehicle":null,"mission":null,"orbit_class":"UNKNOWN","rcs_meters":null,"size_class":null,"mass_kg":null,"dimensions":null,"purposes":["comms"],"wikipedia_slug":null,"has_3d_model":false,"image_url":null,"decayed_at":null,"tle_current":{"epoch":"2026-05-25T01:29:08.177280Z","epoch_age_seconds":62914,"freshness":"FRESH","line1":"1 60128U 24118R   26145.06190020  .00002178  00000+0  81901-4 0  9999","line2":"2 60128  53.1611  31.6754 0001179  89.0875 271.0262 15.31714651107391","mean_motion":15.31714651,"eccentricity":0.0001179,"inclination_deg":53.1611,"raan_deg":31.6754,"arg_perigee_deg":89.0875,"mean_anomaly_deg":271.0262,"bstar":8.1901e-5,"rev_number":10739,"period_min":94.012288715779,"perigee_km":469.88884425651,"apogee_km":471.50379915377,"semimajor_km":6848.8333217051,"source":"CELESTRAK","updated_at":"2026-05-25T13:38:19.168667Z"}}}